| time (UTC) | temp F | wind direction | speed MPH | gust MPH | rain 1hr in | rain 24hr in | rain mn in | humidity % | barometer mb |
| 20260507095019 | 52 | 0 | 0.0 | 2.0 | 0.00 | 0.22 | 0.04 | 94 | 1011.9 |
| 20260507094540 | 52 | 0 | 0.0 | 2.0 | 0.00 | 0.22 | 0.04 | 94 | 1011.7 |
| 20260507094018 | 52 | 0 | 0.0 | 2.0 | 0.00 | 0.22 | 0.04 | 94 | 1011.6 |
| 20260507093518 | 52 | 0 | 0.0 | 2.0 | 0.00 | 0.22 | 0.04 | 94 | 1011.5 |
| 20260507093039 | 52 | 0 | 0.0 | 2.0 | 0.00 | 0.22 | 0.04 | 94 | 1011.5 |
| 20260507092520 | 52 | 0 | 0.0 | 1.0 | 0.00 | 0.22 | 0.04 | 94 | 1011.6 |
| 20260507092019 | 52 | 0 | 0.0 | 0.0 | 0.00 | 0.22 | 0.04 | 94 | 1012.0 |
| 20260507091539 | 52 | 0 | 0.0 | 2.0 | 0.00 | 0.22 | 0.04 | 94 | 1012.0 |
| 20260507091019 | 52 | 0 | 0.0 | 2.0 | 0.00 | 0.22 | 0.04 | 93 | 1011.8 |
| 20260507090519 | 52 | 0 | 0.0 | 2.0 | 0.00 | 0.22 | 0.04 | 93 | 1011.8 |
| 20260507090040 | 52 | 0 | 0.0 | 2.0 | 0.00 | 0.22 | 0.04 | 93 | 1011.5 |
| 20260507085519 | 52 | 0 | 0.0 | 2.0 | 0.00 | 0.22 | 0.04 | 93 | 1011.4 |
| 20260507085019 | 52 | 0 | 0.0 | 2.0 | 0.00 | 0.22 | 0.04 | 92 | 1011.3 |
| 20260507084542 | 52 | 0 | 0.0 | 0.0 | 0.00 | 0.22 | 0.04 | 93 | 1011.3 |
| 20260507084016 | 52 | 0 | 0.0 | 2.0 | 0.00 | 0.22 | 0.04 | 93 | 1011.2 |
| 20260507083518 | 52 | 0 | 0.0 | 2.0 | 0.01 | 0.22 | 0.04 | 92 | 1011.4 |
| 20260507083036 | 52 | 123 | 0.0 | 2.0 | 0.01 | 0.22 | 0.04 | 92 | 1011.3 |
| 20260507082519 | 52 | 0 | 0.0 | 2.0 | 0.01 | 0.22 | 0.04 | 92 | 1011.2 |
| 20260507082021 | 52 | 0 | 0.0 | 2.0 | 0.01 | 0.22 | 0.04 | 91 | 1011.0 |
| 20260507081538 | 52 | 83 | 0.0 | 2.0 | 0.01 | 0.22 | 0.04 | 91 | 1010.9 |
| 20260507081015 | 53 | 45 | 0.0 | 2.0 | 0.01 | 0.22 | 0.04 | 90 | 1010.8 |
| 20260507080521 | 53 | 0 | 0.0 | 3.0 | 0.01 | 0.22 | 0.04 | 90 | 1010.8 |
| 20260507080037 | 53 | 165 | 0.0 | 5.0 | 0.01 | 0.22 | 0.04 | 89 | 1010.8 |
| 20260507075519 | 53 | 132 | 0.0 | 5.0 | 0.01 | 0.22 | 0.04 | 88 | 1010.6 |
| 20260507075019 | 54 | 149 | 1.0 | 2.0 | 0.01 | 0.22 | 0.04 | 87 | 1010.8 |
| 20260507074542 | 54 | 38 | 0.0 | 2.0 | 0.01 | 0.22 | 0.04 | 92 | 1010.6 |
| 20260507074019 | 54 | 159 | 0.0 | 2.0 | 0.01 | 0.22 | 0.04 | 91 | 1010.3 |
| 20260507073519 | 54 | 349 | 0.0 | 2.0 | 0.00 | 0.21 | 0.03 | 91 | 1010.4 |
| 20260507073041 | 54 | 93 | 0.0 | 2.0 | 0.00 | 0.21 | 0.03 | 92 | 1010.4 |
| 20260507072519 | 55 | 0 | 0.0 | 2.0 | 0.00 | 0.21 | 0.03 | 92 | 1010.5 |
| 20260507072018 | 55 | 0 | 0.0 | 2.0 | 0.00 | 0.21 | 0.03 | 92 | 1010.4 |
| 20260507071538 | 55 | 258 | 0.0 | 2.0 | 0.00 | 0.21 | 0.03 | 93 | 1010.5 |
| 20260507071020 | 55 | 0 | 0.0 | 2.0 | 0.00 | 0.21 | 0.03 | 89 | 1010.3 |
| 20260507070519 | 55 | 126 | 0.0 | 2.0 | 0.00 | 0.21 | 0.03 | 93 | 1010.3 |
| 20260507070053 | 55 | 19 | 0.0 | 2.0 | 0.00 | 0.21 | 0.03 | 93 | 1010.1 |
| 20260507065519 | 55 | 78 | 0.0 | 2.0 | 0.00 | 0.21 | 0.03 | 93 | 1010.2 |
| 20260507065019 | 55 | 127 | 0.0 | 3.0 | 0.00 | 0.21 | 0.03 | 93 | 1010.3 |
| 20260507064539 | 55 | 0 | 0.0 | 3.0 | 0.00 | 0.21 | 0.03 | 93 | 1010.3 |
| 20260507064020 | 55 | 36 | 0.0 | 2.0 | 0.00 | 0.21 | 0.03 | 93 | 1010.3 |
| 20260507063517 | 56 | 33 | 0.0 | 2.0 | 0.01 | 0.21 | 0.03 | 93 | 1010.2 |
| 20260507063039 | 56 | 33 | 0.0 | 2.0 | 0.01 | 0.21 | 0.03 | 93 | 1010.4 |
| 20260507062519 | 56 | 53 | 0.0 | 2.0 | 0.01 | 0.21 | 0.03 | 93 | 1009.9 |
| 20260507062019 | 56 | 0 | 0.0 | 2.0 | 0.01 | 0.21 | 0.03 | 93 | 1010.0 |
| 20260507061540 | 56 | 122 | 0.0 | 2.0 | 0.02 | 0.21 | 0.03 | 93 | 1010.0 |
| 20260507061020 | 56 | 32 | 0.0 | 2.0 | 0.02 | 0.21 | 0.03 | 93 | 1010.2 |
| 20260507060518 | 56 | 286 | 0.0 | 2.0 | 0.02 | 0.21 | 0.03 | 93 | 1010.3 |
| 20260507060051 | 56 | 286 | 0.0 | 3.0 | 0.02 | 0.21 | 0.03 | 92 | 1010.3 |
| 20260507055520 | 56 | 282 | 0.0 | 3.0 | 0.03 | 0.21 | 0.03 | 92 | 1010.4 |
| 20260507055019 | 56 | 0 | 0.0 | 2.0 | 0.03 | 0.21 | 0.03 | 92 | 1010.5 |
| 20260507054538 | 57 | 318 | 0.0 | 2.0 | 0.03 | 0.21 | 0.03 | 91 | 1010.4 |
| 20260507054019 | 57 | 9 | 0.0 | 2.0 | 0.03 | 0.21 | 0.03 | 91 | 1010.2 |
| 20260507053516 | 57 | 0 | 0.0 | 2.0 | 0.02 | 0.20 | 0.02 | 90 | 1010.3 |
| 20260507053048 | 57 | 18 | 0.0 | 3.0 | 0.02 | 0.20 | 0.02 | 89 | 1010.1 |
| 20260507052521 | 58 | 336 | 0.0 | 3.0 | 0.02 | 0.20 | 0.02 | 87 | 1010.3 |
| 20260507052019 | 59 | 38 | 1.0 | 3.0 | 0.02 | 0.20 | 0.02 | 87 | 1010.5 |
| 20260507051539 | 59 | 304 | 0.0 | 2.0 | 0.01 | 0.19 | 0.01 | 85 | 1010.9 |
| 20260507051018 | 59 | 45 | 0.0 | 3.0 | 0.01 | 0.19 | 0.01 | 83 | 1010.6 |
| 20260507050519 | 60 | 56 | 0.0 | 5.0 | 0.01 | 0.19 | 0.01 | 83 | 1010.5 |
| 20260507050042 | 60 | 220 | 1.0 | 5.0 | 0.01 | 0.19 | 0.01 | 79 | 1010.9 |
| 20260507045521 | 60 | 74 | 1.0 | 3.0 | 0.00 | 0.18 | 0.00 | 85 | 1010.3 |
| 20260507045019 | 61 | 13 | 0.0 | 2.0 | 0.00 | 0.18 | 0.00 | 83 | 1010.4 |
| 20260507044539 | 61 | 0 | 0.0 | 2.0 | 0.00 | 0.18 | 0.00 | 82 | 1010.2 |
| 20260507044018 | 61 | 0 | 0.0 | 2.0 | 0.00 | 0.18 | 0.00 | 83 | 1010.5 |
| 20260507043519 | 61 | 342 | 1.0 | 2.0 | 0.00 | 0.18 | 0.00 | 81 | 1010.5 |
| 20260507043038 | 61 | 71 | 0.0 | 2.0 | 0.00 | 0.18 | 0.00 | 84 | 1010.4 |
| 20260507042518 | 61 | 0 | 0.0 | 2.0 | 0.00 | 0.18 | 0.00 | 83 | 1010.3 |
| 20260507042019 | 61 | 0 | 0.0 | 2.0 | 0.00 | 0.18 | 0.00 | 84 | 1010.1 |
| 20260507041539 | 61 | 262 | 0.0 | 2.0 | 0.00 | 0.18 | 0.00 | 84 | 1010.1 |
| 20260507041018 | 61 | 213 | 0.0 | 2.0 | 0.00 | 0.18 | 0.00 | 85 | 1009.9 |
| 20260507040519 | 61 | 0 | 0.0 | 2.0 | 0.00 | 0.18 | 0.00 | 85 | 1009.8 |
| 20260507040035 | 61 | 213 | 0.0 | 3.0 | 0.00 | 0.18 | 0.00 | 82 | 1009.5 |
| 20260507035520 | 61 | 0 | 0.0 | 3.0 | 0.00 | 0.18 | 0.18 | 84 | 1009.5 |
| 20260507035019 | 61 | 178 | 0.0 | 7.0 | 0.00 | 0.18 | 0.18 | 85 | 1009.5 |
| 20260507034550 | 61 | 51 | 0.0 | 7.0 | 0.00 | 0.18 | 0.18 | 80 | 1009.9 |
| 20260507034019 | 62 | 0 | 0.0 | 2.0 | 0.00 | 0.18 | 0.18 | 85 | 1010.1 |
| 20260507033519 | 62 | 312 | 0.0 | 2.0 | 0.00 | 0.18 | 0.18 | 84 | 1010.1 |
| 20260507033043 | 62 | 0 | 0.0 | 2.0 | 0.00 | 0.18 | 0.18 | 82 | 1009.9 |
| 20260507032518 | 62 | 0 | 0.0 | 2.0 | 0.00 | 0.18 | 0.18 | 82 | 1009.8 |
| 20260507032018 | 63 | 0 | 0.0 | 4.0 | 0.00 | 0.18 | 0.18 | 85 | 1009.5 |
| 20260507031538 | 63 | 9 | 0.0 | 2.0 | 0.00 | 0.18 | 0.18 | 85 | 1009.6 |
| 20260507031018 | 63 | 161 | 0.0 | 3.0 | 0.00 | 0.18 | 0.18 | 85 | 1009.4 |
| 20260507030519 | 64 | 184 | 0.0 | 3.0 | 0.00 | 0.18 | 0.18 | 86 | 1009.4 |
| 20260507030040 | 65 | 0 | 0.0 | 2.0 | 0.00 | 0.18 | 0.18 | 86 | 1009.4 |
| 20260507025519 | 65 | 283 | 0.0 | 2.0 | 0.00 | 0.18 | 0.18 | 86 | 1009.3 |
| 20260507025019 | 65 | 0 | 0.0 | 2.0 | 0.00 | 0.18 | 0.18 | 85 | 1009.3 |
| 20260507024551 | 65 | 0 | 0.0 | 2.0 | 0.00 | 0.18 | 0.18 | 84 | 1009.2 |
| 20260507024020 | 65 | 331 | 0.0 | 4.0 | 0.00 | 0.18 | 0.18 | 85 | 1009.1 |
| 20260507023522 | 65 | 110 | 0.0 | 4.0 | 0.00 | 0.18 | 0.18 | 85 | 1009.1 |
| 20260507023032 | 65 | 110 | 0.0 | 4.0 | 0.00 | 0.18 | 0.18 | 83 | 1008.9 |
| 20260507022519 | 66 | 0 | 0.0 | 2.0 | 0.00 | 0.18 | 0.18 | 85 | 1008.8 |
| 20260507022021 | 66 | 0 | 0.0 | 2.0 | 0.00 | 0.18 | 0.18 | 85 | 1008.9 |
| 20260507021542 | 66 | 0 | 0.0 | 2.0 | 0.00 | 0.18 | 0.18 | 85 | 1008.8 |
| 20260507021019 | 65 | 197 | 0.0 | 2.0 | 0.00 | 0.18 | 0.18 | 85 | 1008.7 |
| 20260507020516 | 65 | 0 | 0.0 | 2.0 | 0.00 | 0.18 | 0.18 | 85 | 1008.7 |
| 20260507020032 | 65 | 231 | 0.0 | 2.0 | 0.00 | 0.18 | 0.18 | 85 | 1008.8 |
| 20260507015520 | 66 | 0 | 0.0 | 2.0 | 0.00 | 0.18 | 0.18 | 85 | 1008.7 |
| 20260507015018 | 66 | 0 | 0.0 | 2.0 | 0.00 | 0.18 | 0.18 | 84 | 1008.6 |
| 20260507014541 | 66 | 0 | 0.0 | 2.0 | 0.00 | 0.18 | 0.18 | 85 | 1008.7 |
| 20260507014020 | 66 | 0 | 0.0 | 0.0 | 0.00 | 0.18 | 0.18 | 84 | 1008.9 |
| 20260507013518 | 66 | 0 | 0.0 | 1.0 | 0.00 | 0.18 | 0.18 | 84 | 1009.0 |
| 20260507013038 | 66 | 0 | 0.0 | 1.0 | 0.00 | 0.18 | 0.18 | 84 | 1008.9 |
| 20260507012519 | 66 | 0 | 0.0 | 1.0 | 0.00 | 0.18 | 0.18 | 83 | 1009.0 |
| 20260507012019 | 66 | 0 | 0.0 | 2.0 | 0.00 | 0.18 | 0.18 | 83 | 1009.1 |
| 20260507011539 | 66 | 0 | 0.0 | 2.0 | 0.00 | 0.18 | 0.18 | 83 | 1009.1 |
| 20260507011017 | 66 | 0 | 0.0 | 2.0 | 0.00 | 0.18 | 0.18 | 83 | 1009.1 |
| 20260507010516 | 66 | 236 | 0.0 | 2.0 | 0.00 | 0.18 | 0.18 | 83 | 1009.1 |
| 20260507010032 | 66 | 0 | 0.0 | 2.0 | 0.00 | 0.18 | 0.18 | 83 | 1009.1 |
| 20260507005516 | 66 | 0 | 0.0 | 3.0 | 0.00 | 0.18 | 0.18 | 83 | 1009.0 |
| 20260507005016 | 66 | 0 | 0.0 | 3.0 | 0.00 | 0.18 | 0.18 | 82 | 1009.0 |
| 20260507004531 | 66 | 324 | 0.0 | 2.0 | 0.00 | 0.18 | 0.18 | 83 | 1008.8 |
| 20260507004015 | 66 | 227 | 0.0 | 2.0 | 0.00 | 0.18 | 0.18 | 82 | 1008.8 |
| 20260507003517 | 66 | 0 | 0.0 | 2.0 | 0.00 | 0.18 | 0.18 | 83 | 1008.7 |
| 20260507003030 | 67 | 227 | 0.0 | 2.0 | 0.00 | 0.18 | 0.18 | 82 | 1008.7 |
| 20260507002515 | 67 | 0 | 0.0 | 2.0 | 0.00 | 0.18 | 0.18 | 79 | 1008.7 |
| 20260507002016 | 67 | 227 | 0.0 | 2.0 | 0.00 | 0.18 | 0.18 | 82 | 1008.7 |
| 20260507001535 | 67 | 227 | 0.0 | 2.0 | 0.00 | 0.18 | 0.18 | 81 | 1008.8 |
| 20260507001016 | 67 | 226 | 0.0 | 2.0 | 0.00 | 0.18 | 0.18 | 81 | 1008.9 |
| 20260507000515 | 67 | 78 | 0.0 | 2.0 | 0.00 | 0.18 | 0.18 | 81 | 1008.9 |
| 20260507000031 | 67 | 119 | 0.0 | 2.0 | 0.00 | 0.18 | 0.18 | 81 | 1008.8 |
| 20260506235515 | 67 | 0 | 0.0 | 2.0 | 0.00 | 0.18 | 0.18 | 81 | 1008.8 |
| 20260506235016 | 67 | 155 | 0.0 | 2.0 | 0.00 | 0.18 | 0.18 | 80 | 1008.6 |
| 20260506234532 | 67 | 246 | 0.0 | 2.0 | 0.00 | 0.18 | 0.18 | 81 | 1008.6 |
| 20260506234016 | 67 | 227 | 0.0 | 2.0 | 0.00 | 0.18 | 0.18 | 80 | 1008.5 |
| 20260506233516 | 67 | 0 | 0.0 | 2.0 | 0.00 | 0.18 | 0.18 | 80 | 1008.6 |
| 20260506233031 | 68 | 0 | 0.0 | 2.0 | 0.00 | 0.18 | 0.18 | 80 | 1008.5 |
| 20260506232518 | 68 | 53 | 0.0 | 2.0 | 0.00 | 0.18 | 0.18 | 80 | 1008.3 |
| 20260506232016 | 68 | 36 | 0.0 | 2.0 | 0.00 | 0.18 | 0.18 | 76 | 1008.1 |
| 20260506231535 | 68 | 160 | 0.0 | 2.0 | 0.00 | 0.18 | 0.18 | 80 | 1008.1 |
| 20260506231018 | 68 | 146 | 0.0 | 2.0 | 0.00 | 0.18 | 0.18 | 79 | 1008.1 |
| 20260506230516 | 68 | 152 | 0.0 | 2.0 | 0.00 | 0.18 | 0.18 | 79 | 1008.2 |
| 20260506230031 | 68 | 313 | 0.0 | 3.0 | 0.00 | 0.18 | 0.18 | 79 | 1008.3 |
| 20260506225516 | 68 | 0 | 0.0 | 4.0 | 0.00 | 0.18 | 0.18 | 79 | 1008.2 |
| 20260506225015 | 68 | 200 | 1.0 | 4.0 | 0.00 | 0.18 | 0.18 | 76 | 1008.3 |
| 20260506224535 | 68 | 0 | 0.0 | 5.0 | 0.00 | 0.18 | 0.18 | 79 | 1008.2 |
| 20260506224016 | 68 | 244 | 1.0 | 5.0 | 0.00 | 0.18 | 0.18 | 74 | 1008.0 |
| 20260506223515 | 68 | 182 | 1.0 | 3.0 | 0.00 | 0.18 | 0.18 | 78 | 1008.2 |
| 20260506223043 | 68 | 246 | 1.0 | 5.0 | 0.00 | 0.18 | 0.18 | 75 | 1008.2 |
| 20260506222516 | 68 | 209 | 1.0 | 7.0 | 0.00 | 0.18 | 0.18 | 78 | 1008.1 |
| 20260506222016 | 68 | 212 | 1.0 | 7.0 | 0.00 | 0.18 | 0.18 | 77 | 1008.1 |
| 20260506221544 | 68 | 211 | 1.0 | 5.0 | 0.00 | 0.18 | 0.18 | 75 | 1008.2 |
| 20260506221016 | 68 | 163 | 1.0 | 5.0 | 0.00 | 0.18 | 0.18 | 77 | 1008.3 |
| 20260506220520 | 68 | 232 | 1.0 | 4.0 | 0.00 | 0.18 | 0.18 | 78 | 1008.2 |
| 20260506220050 | 69 | 211 | 2.0 | 4.0 | 0.00 | 0.18 | 0.18 | 77 | 1008.2 |
| 20260506215519 | 69 | 246 | 1.0 | 5.0 | 0.00 | 0.18 | 0.18 | 77 | 1008.2 |
| 20260506215018 | 69 | 13 | 1.0 | 9.0 | 0.00 | 0.18 | 0.18 | 77 | 1008.1 |
| 20260506214539 | 69 | 199 | 2.0 | 9.0 | 0.00 | 0.18 | 0.18 | 77 | 1008.3 |
| 20260506214019 | 69 | 249 | 2.0 | 8.0 | 0.00 | 0.18 | 0.18 | 74 | 1008.1 |
| 20260506213520 | 69 | 215 | 2.0 | 8.0 | 0.00 | 0.18 | 0.18 | 73 | 1008.1 |
| 20260506213039 | 69 | 246 | 1.0 | 8.0 | 0.00 | 0.18 | 0.18 | 75 | 1007.7 |
| 20260506212519 | 70 | 254 | 2.0 | 8.0 | 0.00 | 0.18 | 0.18 | 75 | 1007.9 |
| 20260506212018 | 70 | 197 | 1.0 | 8.0 | 0.00 | 0.18 | 0.18 | 75 | 1007.8 |
| 20260506211546 | 70 | 112 | 1.0 | 6.0 | 0.00 | 0.18 | 0.18 | 73 | 1007.8 |
| 20260506211019 | 70 | 30 | 1.0 | 8.0 | 0.00 | 0.18 | 0.18 | 75 | 1007.8 |
| 20260506210519 | 70 | 329 | 2.0 | 9.0 | 0.00 | 0.18 | 0.18 | 74 | 1007.7 |
| 20260506210035 | 70 | 190 | 2.0 | 9.0 | 0.00 | 0.18 | 0.18 | 74 | 1007.8 |
| 20260506205522 | 70 | 254 | 2.0 | 6.0 | 0.00 | 0.18 | 0.18 | 75 | 1007.7 |
| 20260506205019 | 70 | 201 | 2.0 | 6.0 | 0.00 | 0.18 | 0.18 | 72 | 1007.5 |
| 20260506204534 | 70 | 207 | 1.0 | 10.0 | 0.00 | 0.18 | 0.18 | 75 | 1007.5 |
| 20260506204022 | 71 | 144 | 2.0 | 10.0 | 0.00 | 0.18 | 0.18 | 74 | 1007.6 |
| 20260506203520 | 71 | 115 | 1.0 | 6.0 | 0.00 | 0.18 | 0.18 | 75 | 1007.6 |
| 20260506203040 | 70 | 188 | 1.0 | 6.0 | 0.00 | 0.18 | 0.18 | 75 | 1007.7 |
| 20260506202519 | 70 | 236 | 1.0 | 6.0 | 0.00 | 0.18 | 0.18 | 74 | 1007.6 |
| 20260506202020 | 70 | 332 | 1.0 | 10.0 | 0.00 | 0.18 | 0.18 | 74 | 1007.6 |
| 20260506201540 | 70 | 180 | 3.0 | 10.0 | 0.00 | 0.18 | 0.18 | 72 | 1007.7 |
| 20260506201020 | 70 | 192 | 2.0 | 8.0 | 0.00 | 0.18 | 0.18 | 75 | 1007.6 |
| 20260506200518 | 70 | 340 | 2.0 | 8.0 | 0.00 | 0.18 | 0.18 | 75 | 1007.6 |
| 20260506200038 | 70 | 208 | 1.0 | 8.0 | 0.00 | 0.18 | 0.18 | 75 | 1007.6 |
| 20260506195519 | 70 | 217 | 2.0 | 10.0 | 0.00 | 0.18 | 0.18 | 74 | 1007.7 |
| 20260506195020 | 70 | 9 | 2.0 | 10.0 | 0.00 | 0.18 | 0.18 | 75 | 1007.5 |
| 20260506194536 | 70 | 98 | 1.0 | 9.0 | 0.00 | 0.18 | 0.18 | 75 | 1007.6 |
| 20260506194018 | 70 | 319 | 2.0 | 10.0 | 0.00 | 0.18 | 0.18 | 73 | 1007.7 |
| 20260506193520 | 70 | 308 | 2.0 | 10.0 | 0.00 | 0.18 | 0.18 | 71 | 1007.8 |
| 20260506193038 | 70 | 182 | 3.0 | 10.0 | 0.00 | 0.18 | 0.18 | 71 | 1007.6 |
| 20260506192518 | 70 | 338 | 3.0 | 10.0 | 0.00 | 0.18 | 0.18 | 70 | 1007.9 |
| 20260506192020 | 70 | 163 | 2.0 | 10.0 | 0.00 | 0.18 | 0.18 | 71 | 1007.8 |
| 20260506191539 | 69 | 205 | 2.0 | 10.0 | 0.00 | 0.18 | 0.18 | 74 | 1008.0 |
| 20260506191020 | 69 | 74 | 3.0 | 10.0 | 0.00 | 0.18 | 0.18 | 76 | 1008.0 |
| 20260506190531 | 68 | 317 | 3.0 | 8.0 | 0.00 | 0.18 | 0.18 | 74 | 1008.0 |
| 20260506190030 | 68 | 86 | 2.0 | 8.0 | 0.00 | 0.18 | 0.18 | 79 | 1008.0 |
| 20260506185518 | 68 | 158 | 2.0 | 8.0 | 0.00 | 0.18 | 0.18 | 76 | 1008.1 |
| 20260506185016 | 68 | 229 | 1.0 | 4.0 | 0.00 | 0.18 | 0.18 | 75 | 1008.1 |
| 20260506184535 | 68 | 34 | 1.0 | 8.0 | 0.00 | 0.18 | 0.18 | 80 | 1008.2 |
| 20260506184016 | 68 | 151 | 1.0 | 8.0 | 0.00 | 0.18 | 0.18 | 77 | 1008.3 |
| 20260506183516 | 67 | 263 | 3.0 | 8.0 | 0.00 | 0.18 | 0.18 | 75 | 1008.3 |
| 20260506183034 | 67 | 197 | 3.0 | 10.0 | 0.00 | 0.18 | 0.18 | 79 | 1008.3 |
| 20260506182515 | 67 | 82 | 3.0 | 11.0 | 0.00 | 0.18 | 0.18 | 80 | 1008.3 |
| 20260506182015 | 67 | 219 | 3.0 | 11.0 | 0.00 | 0.18 | 0.18 | 80 | 1008.4 |
| 20260506181531 | 67 | 232 | 2.0 | 7.0 | 0.00 | 0.18 | 0.18 | 81 | 1008.5 |
| 20260506181016 | 67 | 171 | 3.0 | 8.0 | 0.00 | 0.18 | 0.18 | 80 | 1008.5 |
| 20260506180516 | 66 | 61 | 2.0 | 9.0 | 0.00 | 0.18 | 0.18 | 83 | 1008.5 |
| 20260506180037 | 66 | 207 | 3.0 | 10.0 | 0.00 | 0.18 | 0.18 | 82 | 1008.5 |
| 20260506175515 | 65 | 338 | 3.0 | 11.0 | 0.00 | 0.18 | 0.18 | 79 | 1008.7 |
| 20260506175016 | 65 | 39 | 4.0 | 11.0 | 0.00 | 0.18 | 0.18 | 81 | 1008.7 |
| 20260506174531 | 65 | 267 | 5.0 | 11.0 | 0.00 | 0.18 | 0.18 | 81 | 1008.7 |
| 20260506174015 | 65 | 347 | 2.0 | 8.0 | 0.00 | 0.18 | 0.18 | 81 | 1008.7 |
| 20260506173516 | 65 | 164 | 2.0 | 6.0 | 0.00 | 0.18 | 0.18 | 85 | 1008.8 |
| 20260506173035 | 64 | 235 | 1.0 | 12.0 | 0.00 | 0.18 | 0.18 | 86 | 1008.6 |
| 20260506172517 | 64 | 329 | 1.0 | 12.0 | 0.00 | 0.18 | 0.18 | 87 | 1008.8 |
| 20260506172020 | 64 | 132 | 3.0 | 11.0 | 0.00 | 0.18 | 0.18 | 86 | 1008.9 |
| 20260506171534 | 64 | 188 | 4.0 | 11.0 | 0.00 | 0.18 | 0.18 | 83 | 1008.8 |
| 20260506171016 | 64 | 321 | 2.0 | 9.0 | 0.00 | 0.18 | 0.18 | 88 | 1008.8 |
| 20260506170517 | 64 | 49 | 3.0 | 7.0 | 0.00 | 0.18 | 0.18 | 88 | 1008.7 |
| 20260506170032 | 64 | 267 | 2.0 | 7.0 | 0.00 | 0.18 | 0.18 | 88 | 1008.8 |
| 20260506165516 | 63 | 200 | 2.0 | 9.0 | 0.00 | 0.18 | 0.18 | 88 | 1008.8 |
| 20260506165020 | 63 | 232 | 3.0 | 9.0 | 0.00 | 0.18 | 0.18 | 89 | 1008.9 |
| 20260506164532 | 63 | 202 | 2.0 | 6.0 | 0.00 | 0.18 | 0.18 | 90 | 1009.0 |
| 20260506164018 | 63 | 260 | 2.0 | 10.0 | 0.00 | 0.18 | 0.18 | 90 | 1009.0 |
| 20260506163517 | 63 | 56 | 2.0 | 10.0 | 0.00 | 0.18 | 0.18 | 90 | 1009.1 |
| 20260506163031 | 63 | 204 | 1.0 | 7.0 | 0.01 | 0.18 | 0.18 | 91 | 1008.9 |
| 20260506162519 | 62 | 162 | 2.0 | 10.0 | 0.01 | 0.18 | 0.18 | 91 | 1008.8 |
| 20260506162019 | 62 | 108 | 2.0 | 11.0 | 0.01 | 0.18 | 0.18 | 91 | 1009.0 |
| 20260506161530 | 62 | 207 | 4.0 | 11.0 | 0.01 | 0.18 | 0.18 | 91 | 1008.9 |
| 20260506161016 | 62 | 18 | 1.0 | 4.0 | 0.02 | 0.18 | 0.18 | 92 | 1009.0 |
| 20260506160516 | 62 | 182 | 1.0 | 4.0 | 0.02 | 0.18 | 0.18 | 93 | 1009.0 |
| 20260506160035 | 62 | 198 | 1.0 | 9.0 | 0.02 | 0.18 | 0.18 | 93 | 1009.2 |
| 20260506155519 | 61 | 170 | 2.0 | 9.0 | 0.02 | 0.18 | 0.18 | 92 | 1009.2 |
| 20260506155019 | 61 | 195 | 2.0 | 9.0 | 0.03 | 0.18 | 0.18 | 92 | 1009.4 |
| 20260506154535 | 61 | 157 | 2.0 | 4.0 | 0.03 | 0.18 | 0.18 | 92 | 1009.4 |
| 20260506154019 | 61 | 333 | 1.0 | 7.0 | 0.05 | 0.18 | 0.18 | 92 | 1009.3 |
| 20260506153518 | 61 | 225 | 1.0 | 10.0 | 0.07 | 0.18 | 0.18 | 92 | 1009.1 |
| 20260506153043 | 61 | 334 | 1.0 | 10.0 | 0.07 | 0.17 | 0.17 | 92 | 1008.9 |
| 20260506152519 | 61 | 5 | 2.0 | 10.0 | 0.09 | 0.17 | 0.17 | 92 | 1009.1 |
| 20260506152019 | 61 | 207 | 1.0 | 5.0 | 0.09 | 0.17 | 0.17 | 93 | 1009.4 |
| 20260506151539 | 61 | 317 | 0.0 | 5.0 | 0.10 | 0.17 | 0.17 | 92 | 1009.7 |
| 20260506151019 | 61 | 221 | 0.0 | 6.0 | 0.10 | 0.16 | 0.16 | 93 | 1009.8 |
| 20260506150519 | 61 | 15 | 0.0 | 6.0 | 0.10 | 0.16 | 0.16 | 92 | 1010.0 |
| 20260506150048 | 61 | 204 | 0.0 | 7.0 | 0.12 | 0.16 | 0.16 | 92 | 1010.1 |
| 20260506145522 | 61 | 36 | 2.0 | 7.0 | 0.13 | 0.16 | 0.16 | 92 | 1010.1 |
| 20260506145019 | 61 | 298 | 1.0 | 7.0 | 0.12 | 0.15 | 0.15 | 92 | 1010.1 |
| 20260506144553 | 61 | 0 | 0.0 | 7.0 | 0.12 | 0.14 | 0.14 | 91 | 1010.2 |
| 20260506144019 | 61 | 150 | 0.0 | 5.0 | 0.12 | 0.13 | 0.13 | 90 | 1010.1 |
| 20260506143519 | 61 | 187 | 1.0 | 5.0 | 0.11 | 0.11 | 0.11 | 87 | 1010.2 |
| 20260506143049 | 61 | 202 | 1.0 | 2.0 | 0.09 | 0.09 | 0.09 | 90 | 1010.1 |
| 20260506142518 | 61 | 38 | 0.0 | 5.0 | 0.08 | 0.08 | 0.08 | 90 | 1010.1 |
| 20260506142018 | 61 | 261 | 1.0 | 5.0 | 0.08 | 0.08 | 0.08 | 90 | 1010.0 |
| 20260506141540 | 61 | 171 | 1.0 | 4.0 | 0.07 | 0.07 | 0.07 | 89 | 1010.2 |
| 20260506141021 | 62 | 22 | 1.0 | 6.0 | 0.06 | 0.06 | 0.06 | 88 | 1010.1 |
| 20260506140519 | 62 | 235 | 0.0 | 6.0 | 0.06 | 0.06 | 0.06 | 88 | 1010.1 |
| 20260506140055 | 62 | 291 | 0.0 | 4.0 | 0.04 | 0.04 | 0.04 | 87 | 1010.2 |
| 20260506135518 | 62 | 296 | 1.0 | 4.0 | 0.03 | 0.03 | 0.03 | 82 | 1010.2 |
| 20260506135018 | 63 | 5 | 0.0 | 4.0 | 0.03 | 0.03 | 0.03 | 85 | 1010.3 |
| 20260506134538 | 63 | 227 | 1.0 | 4.0 | 0.01 | 0.01 | 0.01 | 82 | 1010.6 |
| 20260506134019 | 63 | 232 | 0.0 | 4.0 | 0.01 | 0.01 | 0.01 | 83 | 1010.7 |
| 20260506133519 | 63 | 172 | 1.0 | 5.0 | 0.00 | 0.00 | 0.00 | 78 | 1010.7 |
| 20260506133034 | 64 | 164 | 1.0 | 5.0 | 0.00 | 0.00 | 0.00 | 81 | 1010.6 |
| 20260506132519 | 64 | 304 | 1.0 | 5.0 | 0.00 | 0.00 | 0.00 | 79 | 1010.4 |
| 20260506132021 | 64 | 66 | 1.0 | 5.0 | 0.00 | 0.00 | 0.00 | 75 | 1010.3 |
| 20260506131544 | 64 | 40 | 1.0 | 4.0 | 0.00 | 0.00 | 0.00 | 75 | 1010.0 |
| 20260506131017 | 64 | 10 | 0.0 | 7.0 | 0.00 | 0.00 | 0.00 | 76 | 1010.2 |
| 20260506130520 | 64 | 97 | 2.0 | 7.0 | 0.00 | 0.00 | 0.00 | 76 | 1010.0 |
| 20260506130059 | 64 | 5 | 1.0 | 8.0 | 0.00 | 0.00 | 0.00 | 76 | 1009.8 |
| 20260506125517 | 64 | 59 | 1.0 | 8.0 | 0.00 | 0.00 | 0.00 | 78 | 1009.8 |
| 20260506125016 | 64 | 197 | 1.0 | 5.0 | 0.00 | 0.00 | 0.00 | 79 | 1009.7 |
| 20260506124534 | 64 | 123 | 0.0 | 6.0 | 0.00 | 0.00 | 0.00 | 79 | 1009.8 |
| 20260506124016 | 64 | 229 | 1.0 | 6.0 | 0.00 | 0.00 | 0.00 | 77 | 1009.9 |
| 20260506123516 | 64 | 188 | 2.0 | 6.0 | 0.00 | 0.00 | 0.00 | 77 | 1009.9 |
| 20260506123038 | 64 | 0 | 0.0 | 4.0 | 0.00 | 0.00 | 0.00 | 77 | 1010.2 |
| 20260506122515 | 64 | 316 | 0.0 | 4.0 | 0.00 | 0.00 | 0.00 | 77 | 1010.1 |
| 20260506122016 | 64 | 88 | 2.0 | 4.0 | 0.00 | 0.00 | 0.00 | 76 | 1010.2 |
| 20260506121534 | 64 | 53 | 1.0 | 4.0 | 0.00 | 0.00 | 0.00 | 76 | 1010.3 |
| 20260506121016 | 64 | 257 | 1.0 | 4.0 | 0.00 | 0.00 | 0.00 | 73 | 1010.2 |
| 20260506120520 | 65 | 119 | 1.0 | 5.0 | 0.00 | 0.00 | 0.00 | 73 | 1010.3 |
| 20260506120034 | 65 | 182 | 1.0 | 7.0 | 0.00 | 0.00 | 0.00 | 72 | 1010.4 |
| 20260506115517 | 65 | 17 | 2.0 | 7.0 | 0.00 | 0.00 | 0.00 | 74 | 1010.3 |
| 20260506115018 | 65 | 167 | 2.0 | 6.0 | 0.00 | 0.00 | 0.00 | 74 | 1010.1 |
| 20260506114538 | 65 | 217 | 2.0 | 6.0 | 0.00 | 0.00 | 0.00 | 74 | 1010.2 |
| 20260506114019 | 65 | 138 | 1.0 | 5.0 | 0.00 | 0.00 | 0.00 | 74 | 1010.0 |
| 20260506113515 | 65 | 55 | 1.0 | 9.0 | 0.00 | 0.00 | 0.00 | 74 | 1009.8 |
| 20260506113042 | 65 | 220 | 2.0 | 9.0 | 0.00 | 0.00 | 0.00 | 73 | 1009.9 |
| 20260506112518 | 65 | 25 | 1.0 | 12.0 | 0.00 | 0.00 | 0.00 | 74 | 1009.7 |
| 20260506112017 | 65 | 226 | 2.0 | 12.0 | 0.00 | 0.00 | 0.00 | 70 | 1009.7 |
| 20260506111533 | 65 | 344 | 3.0 | 9.0 | 0.00 | 0.00 | 0.00 | 74 | 1009.8 |
| 20260506111016 | 65 | 61 | 2.0 | 9.0 | 0.00 | 0.00 | 0.00 | 75 | 1009.7 |
| 20260506110518 | 64 | 144 | 1.0 | 8.0 | 0.00 | 0.00 | 0.00 | 74 | 1009.6 |
| 20260506110041 | 64 | 308 | 2.0 | 8.0 | 0.00 | 0.00 | 0.00 | 75 | 1009.5 |
| 20260506105517 | 64 | 161 | 1.0 | 8.0 | 0.00 | 0.00 | 0.00 | 75 | 1009.5 |
| 20260506105020 | 64 | 251 | 1.0 | 8.0 | 0.00 | 0.00 | 0.00 | 75 | 1009.4 |
| 20260506104533 | 64 | 313 | 2.0 | 8.0 | 0.00 | 0.00 | 0.00 | 75 | 1009.6 |
| 20260506104020 | 64 | 61 | 1.0 | 4.0 | 0.00 | 0.00 | 0.00 | 75 | 1009.4 |
| 20260506103516 | 64 | 285 | 1.0 | 7.0 | 0.00 | 0.00 | 0.00 | 75 | 1009.4 |
| 20260506103032 | 64 | 73 | 1.0 | 7.0 | 0.00 | 0.00 | 0.00 | 75 | 1009.4 |
| 20260506102517 | 64 | 218 | 1.0 | 5.0 | 0.00 | 0.00 | 0.00 | 75 | 1009.5 |
| 20260506102016 | 64 | 64 | 0.0 | 5.0 | 0.00 | 0.00 | 0.00 | 75 | 1009.5 |
| 20260506101534 | 64 | 180 | 0.0 | 3.0 | 0.00 | 0.00 | 0.00 | 75 | 1009.6 |
| 20260506101015 | 64 | 231 | 1.0 | 3.0 | 0.00 | 0.00 | 0.00 | 75 | 1009.5 |
| 20260506100516 | 64 | 123 | 0.0 | 3.0 | 0.00 | 0.00 | 0.00 | 75 | 1009.4 |
| 20260506100036 | 64 | 340 | 0.0 | 4.0 | 0.00 | 0.00 | 0.00 | 75 | 1009.4 |
| 20260506095516 | 64 | 225 | 1.0 | 4.0 | 0.00 | 0.00 | 0.00 | 74 | 1009.5 |